Time,TemperatureF,DewpointF,PressureIn,WindDirection,WindDirectionDegrees,WindSpeedMPH,WindSpeedGustMPH,Humidity,HourlyPrecipIn,Conditions,Clouds,dailyrainin,SoftwareType,DateUTC
2013-01-26 00:00:00,48.1,46.5,30.04,East,93,0.0,0.0,94,0.00,,---,0.01,VWS V14.01,2013-01-26 08:00:00,
2013-01-26 00:05:00,48.0,46.4,30.03,East,93,0.0,0.0,94,0.00,,---,0.00,VWS V14.01,2013-01-26 08:05:00,
2013-01-26 00:10:00,48.0,46.4,30.03,East,93,0.0,0.0,94,0.00,,---,0.00,VWS V14.01,2013-01-26 08:10:00,
2013-01-26 00:15:00,48.0,46.4,30.03,East,93,0.0,0.0,94,0.00,,---,0.00,VWS V14.01,2013-01-26 08:15:00,
2013-01-26 00:20:00,48.0,46.6,30.03,East,93,0.0,0.0,95,0.00,,---,0.00,VWS V14.01,2013-01-26 08:20:00,
2013-01-26 00:25:00,48.0,46.6,30.03,East,93,0.0,0.0,95,0.00,,---,0.00,VWS V14.01,2013-01-26 08:25:00,
2013-01-26 00:30:00,47.9,46.3,30.03,East,93,0.0,0.0,94,0.00,,---,0.00,VWS V14.01,2013-01-26 08:30:00,
2013-01-26 00:35:00,47.9,46.3,30.03,East,93,0.0,0.0,94,0.00,,---,0.00,VWS V14.01,2013-01-26 08:35:00,
2013-01-26 00:40:00,47.8,46.2,30.02,East,93,0.0,0.0,94,0.00,,---,0.00,VWS V14.01,2013-01-26 08:40:00,
2013-01-26 00:45:00,47.7,46.3,30.02,East,93,0.0,0.0,95,0.00,,---,0.00,VWS V14.01,2013-01-26 08:45:00,
2013-01-26 00:50:00,47.6,46.2,30.02,East,93,0.0,0.0,95,0.00,,---,0.00,VWS V14.01,2013-01-26 08:50:00,
2013-01-26 00:55:00,47.5,46.1,30.02,East,93,0.0,0.0,95,0.00,,---,0.00,VWS V14.01,2013-01-26 08:55:00,
2013-01-26 01:00:00,47.4,45.8,30.02,East,93,0.0,0.0,94,0.00,,---,0.00,VWS V14.01,2013-01-26 09:00:00,
2013-01-26 01:05:00,47.2,45.6,30.01,East,93,0.0,0.0,94,0.00,,---,0.00,VWS V14.01,2013-01-26 09:05:00,
2013-01-26 01:10:00,47.0,45.7,30.01,East,93,0.0,1.0,95,0.00,,---,0.00,VWS V14.01,2013-01-26 09:10:00,
2013-01-26 01:15:00,47.0,45.7,30.01,East,93,0.0,0.0,95,0.00,,---,0.00,VWS V14.01,2013-01-26 09:15:00,
2013-01-26 01:20:00,46.8,45.5,30.01,East,93,0.0,0.0,95,0.00,,---,0.00,VWS V14.01,2013-01-26 09:20:00,
2013-01-26 01:25:00,46.6,45.0,30.01,East,93,0.0,0.0,94,0.00,,---,0.00,VWS V14.01,2013-01-26 09:25:00,
2013-01-26 01:30:00,46.5,44.9,30.01,East,93,0.0,0.0,94,0.00,,---,0.00,VWS V14.01,2013-01-26 09:30:00,
2013-01-26 01:35:00,46.4,45.0,30.01,East,93,0.0,0.0,95,0.00,,---,0.00,VWS V14.01,2013-01-26 09:35:00,
2013-01-26 01:40:00,46.3,45.0,30.02,East,93,0.0,0.0,95,0.00,,---,0.00,VWS V14.01,2013-01-26 09:40:00,
2013-01-26 01:45:00,46.2,44.8,30.01,East,93,0.0,0.0,95,0.00,,---,0.00,VWS V14.01,2013-01-26 09:45:00,
2013-01-26 01:50:00,46.0,44.4,30.01,East,93,0.0,0.0,94,0.00,,---,0.00,VWS V14.01,2013-01-26 09:50:00,
2013-01-26 01:55:00,45.9,44.5,30.02,East,93,0.0,0.0,95,0.00,,---,0.00,VWS V14.01,2013-01-26 09:55:00,
2013-01-26 02:00:00,45.8,44.5,30.01,East,93,0.0,0.0,95,0.00,,---,0.00,VWS V14.01,2013-01-26 10:00:00,
2013-01-26 02:05:00,45.7,44.3,30.01,East,93,0.0,0.0,95,0.00,,---,0.00,VWS V14.01,2013-01-26 10:05:00,
2013-01-26 02:10:00,45.6,44.2,30.01,East,93,0.0,0.0,95,0.00,,---,0.00,VWS V14.01,2013-01-26 10:10:00,
2013-01-26 02:15:00,45.5,44.2,30.02,East,93,0.0,0.0,95,0.00,,---,0.00,VWS V14.01,2013-01-26 10:15:00,
2013-01-26 02:20:00,45.5,44.2,30.01,East,93,0.0,0.0,95,0.00,,---,0.00,VWS V14.01,2013-01-26 10:20:00,
2013-01-26 02:25:00,45.5,44.2,30.01,East,93,0.0,1.0,95,0.00,,---,0.00,VWS V14.01,2013-01-26 10:25:00,
2013-01-26 02:30:00,45.4,44.0,30.01,East,93,0.0,1.0,95,0.00,,---,0.00,VWS V14.01,2013-01-26 10:30:00,
2013-01-26 02:35:00,45.3,44.0,30.01,East,93,0.0,0.0,95,0.00,,---,0.00,VWS V14.01,2013-01-26 10:35:00,
2013-01-26 02:40:00,45.1,43.8,30.01,East,93,0.0,0.0,95,0.00,,---,0.00,VWS V14.01,2013-01-26 10:40:00,
2013-01-26 02:45:00,45.0,43.7,30.01,East,93,0.0,0.0,95,0.00,,---,0.00,VWS V14.01,2013-01-26 10:45:00,
2013-01-26 02:50:00,44.9,43.6,30.01,East,93,0.0,0.0,95,0.00,,---,0.00,VWS V14.01,2013-01-26 10:50:00,
2013-01-26 02:55:00,44.9,43.6,30.01,East,93,0.0,0.0,95,0.00,,---,0.00,VWS V14.01,2013-01-26 10:55:00,
2013-01-26 03:00:00,44.9,43.6,30.01,East,93,0.0,0.0,95,0.00,,---,0.00,VWS V14.01,2013-01-26 11:00:00,
2013-01-26 03:05:00,44.7,43.4,30.00,East,93,0.0,0.0,95,0.00,,---,0.00,VWS V14.01,2013-01-26 11:05:00,
2013-01-26 03:10:00,44.6,43.3,30.01,East,93,0.0,0.0,95,0.00,,---,0.00,VWS V14.01,2013-01-26 11:10:00,
2013-01-26 03:15:00,44.6,43.3,30.00,East,93,0.0,0.0,95,0.00,,---,0.00,VWS V14.01,2013-01-26 11:15:00,
2013-01-26 03:20:00,44.7,43.4,30.00,East,93,0.0,1.0,95,0.00,,---,0.00,VWS V14.01,2013-01-26 11:20:00,
2013-01-26 03:25:00,45.0,43.7,30.01,East,93,0.0,0.0,95,0.00,,---,0.00,VWS V14.01,2013-01-26 11:25:00,
2013-01-26 03:30:00,45.1,43.8,30.00,East,93,0.0,0.0,95,0.00,,---,0.00,VWS V14.01,2013-01-26 11:30:00,
2013-01-26 03:35:00,45.2,43.9,30.00,East,93,0.0,0.0,95,0.00,,---,0.00,VWS V14.01,2013-01-26 11:35:00,
2013-01-26 03:40:00,45.3,44.0,30.00,East,93,0.0,0.0,95,0.00,,---,0.00,VWS V14.01,2013-01-26 11:40:00,
2013-01-26 03:45:00,45.3,44.0,30.00,East,93,0.0,0.0,95,0.00,,---,0.00,VWS V14.01,2013-01-26 11:45:00,
2013-01-26 03:50:00,45.3,44.0,30.00,East,93,0.0,0.0,95,0.00,,---,0.00,VWS V14.01,2013-01-26 11:50:00,
2013-01-26 03:55:00,45.3,44.0,30.00,East,93,0.0,0.0,95,0.00,,---,0.00,VWS V14.01,2013-01-26 11:55:00,
2013-01-26 04:00:00,45.3,44.0,30.00,East,93,0.0,0.0,95,0.00,,---,0.00,VWS V14.01,2013-01-26 12:00:00,
2013-01-26 04:05:00,45.4,44.0,30.00,East,93,0.0,0.0,95,0.00,,---,0.00,VWS V14.01,2013-01-26 12:05:00,
2013-01-26 04:10:00,45.3,44.0,30.00,East,93,0.0,0.0,95,0.00,,---,0.00,VWS V14.01,2013-01-26 12:10:00,
2013-01-26 04:15:00,45.2,43.9,30.00,East,93,0.0,0.0,95,0.00,,---,0.00,VWS V14.01,2013-01-26 12:15:00,
2013-01-26 04:20:00,45.2,43.9,30.00,East,93,0.0,0.0,95,0.00,,---,0.00,VWS V14.01,2013-01-26 12:20:00,
2013-01-26 04:25:00,45.0,43.7,30.00,East,93,0.0,0.0,95,0.00,,---,0.00,VWS V14.01,2013-01-26 12:25:00,
2013-01-26 04:30:00,45.0,43.7,30.00,East,93,0.0,0.0,95,0.00,,---,0.00,VWS V14.01,2013-01-26 12:30:00,
2013-01-26 04:35:00,44.8,43.5,29.99,East,93,0.0,0.0,95,0.00,,---,0.00,VWS V14.01,2013-01-26 12:35:00,
2013-01-26 04:40:00,44.6,43.3,29.99,East,93,0.0,0.0,95,0.00,,---,0.00,VWS V14.01,2013-01-26 12:40:00,
2013-01-26 04:45:00,44.5,43.2,29.99,East,93,0.0,0.0,95,0.00,,---,0.00,VWS V14.01,2013-01-26 12:45:00,
2013-01-26 04:50:00,44.4,43.1,29.99,East,93,0.0,0.0,95,0.00,,---,0.00,VWS V14.01,2013-01-26 12:50:00,
2013-01-26 04:55:00,44.4,43.1,29.99,East,93,0.0,0.0,95,0.00,,---,0.00,VWS V14.01,2013-01-26 12:55:00,
2013-01-26 05:00:00,44.3,43.0,29.99,East,93,0.0,0.0,95,0.00,,---,0.00,VWS V14.01,2013-01-26 13:00:00,
2013-01-26 05:05:00,44.3,43.0,29.99,East,93,0.0,0.0,95,0.00,,---,0.00,VWS V14.01,2013-01-26 13:05:00,
2013-01-26 05:10:00,44.3,43.0,29.99,East,93,0.0,0.0,95,0.00,,---,0.00,VWS V14.01,2013-01-26 13:10:00,
2013-01-26 05:15:00,44.3,43.0,29.99,East,93,0.0,0.0,95,0.00,,---,0.00,VWS V14.01,2013-01-26 13:15:00,
2013-01-26 05:20:00,44.2,42.9,29.99,East,93,0.0,0.0,95,0.00,,---,0.00,VWS V14.01,2013-01-26 13:20:00,
2013-01-26 05:25:00,44.1,42.8,30.00,East,93,0.0,0.0,95,0.00,,---,0.00,VWS V14.01,2013-01-26 13:25:00,
2013-01-26 05:30:00,43.8,42.5,30.00,East,93,0.0,0.0,95,0.00,,---,0.00,VWS V14.01,2013-01-26 13:30:00,
2013-01-26 05:35:00,43.7,42.4,30.00,East,93,0.0,0.0,95,0.00,,---,0.00,VWS V14.01,2013-01-26 13:35:00,
2013-01-26 05:40:00,43.7,42.4,30.00,East,93,0.0,0.0,95,0.00,,---,0.00,VWS V14.01,2013-01-26 13:40:00,
2013-01-26 05:45:00,43.6,42.3,30.00,East,93,0.0,0.0,95,0.00,,---,0.00,VWS V14.01,2013-01-26 13:45:00,
2013-01-26 05:50:00,43.5,42.2,30.00,East,93,0.0,0.0,95,0.00,,---,0.00,VWS V14.01,2013-01-26 13:50:00,
2013-01-26 05:55:00,43.4,42.1,30.00,East,93,0.0,0.0,95,0.00,,---,0.00,VWS V14.01,2013-01-26 13:55:00,
2013-01-26 06:00:00,43.4,42.1,29.99,East,93,0.0,0.0,95,0.00,,---,0.00,VWS V14.01,2013-01-26 14:00:00,
2013-01-26 06:05:00,43.2,41.9,30.00,East,93,0.0,0.0,95,0.00,,---,0.00,VWS V14.01,2013-01-26 14:05:00,
2013-01-26 06:10:00,43.0,41.7,29.99,East,93,0.0,0.0,95,0.00,,---,0.00,VWS V14.01,2013-01-26 14:10:00,
2013-01-26 06:15:00,43.0,41.7,29.99,East,93,0.0,0.0,95,0.00,,---,0.00,VWS V14.01,2013-01-26 14:15:00,
2013-01-26 06:20:00,43.0,41.7,29.99,East,93,0.0,0.0,95,0.00,,---,0.00,VWS V14.01,2013-01-26 14:20:00,
2013-01-26 06:25:00,43.0,41.7,29.99,East,93,0.0,0.0,95,0.00,,---,0.00,VWS V14.01,2013-01-26 14:25:00,
2013-01-26 06:30:00,42.9,41.6,29.99,East,93,0.0,0.0,95,0.00,,---,0.00,VWS V14.01,2013-01-26 14:30:00,
2013-01-26 06:35:00,42.9,41.6,29.99,East,93,0.0,0.0,95,0.00,,---,0.00,VWS V14.01,2013-01-26 14:35:00,
2013-01-26 06:40:00,42.9,41.8,29.99,East,93,0.0,0.0,96,0.00,,---,0.00,VWS V14.01,2013-01-26 14:40:00,
2013-01-26 06:45:00,43.0,41.9,30.00,East,93,0.0,0.0,96,0.00,,---,0.00,VWS V14.01,2013-01-26 14:45:00,
2013-01-26 06:50:00,43.0,41.9,30.00,East,93,0.0,0.0,96,0.00,,---,0.00,VWS V14.01,2013-01-26 14:50:00,
2013-01-26 06:55:00,42.8,41.5,30.00,East,93,0.0,0.0,95,0.00,,---,0.00,VWS V14.01,2013-01-26 14:55:00,
2013-01-26 07:00:00,42.7,41.4,30.00,East,93,0.0,0.0,95,0.00,,---,0.00,VWS V14.01,2013-01-26 15:00:00,
2013-01-26 07:05:00,42.7,41.4,30.00,East,93,0.0,0.0,95,0.00,,---,0.00,VWS V14.01,2013-01-26 15:05:00,
2013-01-26 07:10:00,42.7,41.4,30.00,East,93,0.0,0.0,95,0.00,,---,0.00,VWS V14.01,2013-01-26 15:10:00,
2013-01-26 07:15:00,42.6,41.3,30.00,East,93,0.0,0.0,95,0.00,,---,0.00,VWS V14.01,2013-01-26 15:15:00,
2013-01-26 07:20:00,42.6,41.3,30.00,East,93,0.0,0.0,95,0.00,,---,0.00,VWS V14.01,2013-01-26 15:20:00,
2013-01-26 07:25:00,42.5,41.2,30.00,East,93,0.0,0.0,95,0.00,,---,0.00,VWS V14.01,2013-01-26 15:25:00,
2013-01-26 07:30:00,42.5,41.2,29.99,East,93,0.0,0.0,95,0.00,,---,0.00,VWS V14.01,2013-01-26 15:30:00,
2013-01-26 07:35:00,42.5,41.4,29.99,East,93,0.0,0.0,96,0.00,,---,0.00,VWS V14.01,2013-01-26 15:35:00,
2013-01-26 07:40:00,42.5,41.4,29.99,East,93,0.0,0.0,96,0.00,,---,0.00,VWS V14.01,2013-01-26 15:40:00,
2013-01-26 07:45:00,42.6,41.5,29.99,East,93,0.0,0.0,96,0.00,,---,0.00,VWS V14.01,2013-01-26 15:45:00,
2013-01-26 07:50:00,42.6,41.5,29.99,East,93,0.0,0.0,96,0.00,,---,0.00,VWS V14.01,2013-01-26 15:50:00,
2013-01-26 07:55:00,42.8,41.7,30.00,East,93,0.0,0.0,96,0.00,,---,0.00,VWS V14.01,2013-01-26 15:55:00,
2013-01-26 08:00:00,43.1,42.0,29.99,East,93,0.0,1.0,96,0.00,,---,0.00,VWS V14.01,2013-01-26 16:00:00,
2013-01-26 08:05:00,43.3,42.2,29.99,East,93,0.0,0.0,96,0.00,,---,0.00,VWS V14.01,2013-01-26 16:05:00,
2013-01-26 08:10:00,43.5,42.4,29.99,East,93,0.0,0.0,96,0.00,,---,0.00,VWS V14.01,2013-01-26 16:10:00,
2013-01-26 08:15:00,43.6,42.5,30.00,East,93,0.0,0.0,96,0.00,,---,0.00,VWS V14.01,2013-01-26 16:15:00,
2013-01-26 08:20:00,43.8,42.7,30.00,East,93,0.0,0.0,96,0.00,,---,0.00,VWS V14.01,2013-01-26 16:20:00,
2013-01-26 08:25:00,44.2,43.1,30.00,East,93,0.0,0.0,96,0.00,,---,0.00,VWS V14.01,2013-01-26 16:25:00,
2013-01-26 08:30:00,44.8,43.7,30.00,East,93,0.0,0.0,96,0.00,,---,0.00,VWS V14.01,2013-01-26 16:30:00,
2013-01-26 08:35:00,45.1,44.0,30.00,East,93,0.0,0.0,96,0.00,,---,0.00,VWS V14.01,2013-01-26 16:35:00,
2013-01-26 08:40:00,45.5,44.4,30.00,East,93,0.0,0.0,96,0.00,,---,0.00,VWS V14.01,2013-01-26 16:40:00,
2013-01-26 08:45:00,46.0,44.9,30.00,East,93,0.0,0.0,96,0.00,,---,0.00,VWS V14.01,2013-01-26 16:45:00,
2013-01-26 08:50:00,46.3,45.5,30.00,East,93,0.0,0.0,97,0.00,,---,0.00,VWS V14.01,2013-01-26 16:50:00,
2013-01-26 08:55:00,46.7,45.6,30.00,East,93,0.0,0.0,96,0.00,,---,0.00,VWS V14.01,2013-01-26 16:55:00,
2013-01-26 09:00:00,46.9,46.1,30.00,East,93,0.0,0.0,97,0.00,,---,0.00,VWS V14.01,2013-01-26 17:00:00,
2013-01-26 09:05:00,47.1,46.0,30.00,East,93,1.0,1.0,96,0.00,,---,0.00,VWS V14.01,2013-01-26 17:05:00,
2013-01-26 09:10:00,47.4,46.3,30.00,East,93,0.0,2.0,96,0.00,,---,0.00,VWS V14.01,2013-01-26 17:10:00,
2013-01-26 09:15:00,47.7,46.9,30.00,East,93,0.0,0.0,97,0.00,,---,0.00,VWS V14.01,2013-01-26 17:15:00,
2013-01-26 09:20:00,48.1,47.0,30.00,East,93,0.0,0.0,96,0.00,,---,0.00,VWS V14.01,2013-01-26 17:20:00,
2013-01-26 09:25:00,48.3,47.5,30.01,East,93,0.0,0.0,97,0.00,,---,0.00,VWS V14.01,2013-01-26 17:25:00,
2013-01-26 09:30:00,48.7,47.9,30.01,East,93,0.0,0.0,97,0.00,,---,0.00,VWS V14.01,2013-01-26 17:30:00,
2013-01-26 09:35:00,49.2,48.4,30.01,East,93,0.0,0.0,97,0.00,,---,0.00,VWS V14.01,2013-01-26 17:35:00,
2013-01-26 09:40:00,49.5,48.7,30.01,East,93,0.0,0.0,97,0.00,,---,0.00,VWS V14.01,2013-01-26 17:40:00,
2013-01-26 09:45:00,49.7,48.9,30.01,East,93,0.0,0.0,97,0.00,,---,0.00,VWS V14.01,2013-01-26 17:45:00,
2013-01-26 09:50:00,49.9,49.1,30.01,NNW,342,1.0,3.0,97,0.00,,---,0.00,VWS V14.01,2013-01-26 17:50:00,
2013-01-26 09:55:00,50.1,49.3,30.01,WSW,246,2.0,6.0,97,0.00,,---,0.00,VWS V14.01,2013-01-26 17:55:00,
2013-01-26 10:00:00,50.5,49.7,30.01,SW,218,4.0,6.0,97,0.00,,---,0.00,VWS V14.01,2013-01-26 18:00:00,
2013-01-26 10:05:00,50.4,49.6,30.01,North,355,1.0,5.0,97,0.00,,---,0.00,VWS V14.01,2013-01-26 18:05:00,
2013-01-26 10:10:00,50.6,49.8,30.01,WNW,295,1.0,5.0,97,0.00,,---,0.00,VWS V14.01,2013-01-26 18:10:00,
2013-01-26 10:15:00,50.9,50.1,30.01,SW,215,0.0,2.0,97,0.00,,---,0.00,VWS V14.01,2013-01-26 18:15:00,
2013-01-26 10:20:00,51.2,50.1,30.01,North,351,2.0,5.0,96,0.00,,---,0.00,VWS V14.01,2013-01-26 18:20:00,
2013-01-26 10:25:00,51.6,49.7,30.01,West,275,4.0,5.0,93,0.00,,---,0.00,VWS V14.01,2013-01-26 18:25:00,
2013-01-26 10:30:00,51.9,49.1,30.01,SE,141,0.0,5.0,90,0.00,,---,0.00,VWS V14.01,2013-01-26 18:30:00,
2013-01-26 10:35:00,52.1,47.7,30.02,WSW,244,2.0,7.0,85,0.00,,---,0.00,VWS V14.01,2013-01-26 18:35:00,
2013-01-26 10:40:00,53.6,47.9,30.02,West,265,1.0,7.0,81,0.00,,---,0.00,VWS V14.01,2013-01-26 18:40:00,
2013-01-26 10:45:00,54.2,47.5,30.02,West,267,0.0,5.0,78,0.00,,---,0.00,VWS V14.01,2013-01-26 18:45:00,
2013-01-26 10:50:00,54.6,47.2,30.01,WSW,248,0.0,6.0,76,0.00,,---,0.00,VWS V14.01,2013-01-26 18:50:00,
2013-01-26 10:55:00,55.0,46.5,30.02,West,272,1.0,5.0,73,0.00,,---,0.00,VWS V14.01,2013-01-26 18:55:00,
2013-01-26 11:00:00,55.2,46.7,30.01,SSW,199,3.0,7.0,73,0.00,,---,0.00,VWS V14.01,2013-01-26 19:00:00,
2013-01-26 11:05:00,55.3,46.4,30.01,NW,326,0.0,7.0,72,0.00,,---,0.00,VWS V14.01,2013-01-26 19:05:00,
2013-01-26 11:10:00,55.2,45.6,30.01,WNW,287,3.0,11.0,70,0.00,,---,0.00,VWS V14.01,2013-01-26 19:10:00,
2013-01-26 11:15:00,54.5,44.9,30.01,NW,304,5.0,5.0,70,0.00,,---,0.00,VWS V14.01,2013-01-26 19:15:00,
2013-01-26 11:20:00,54.1,44.5,30.01,West,273,0.0,5.0,70,0.00,,---,0.00,VWS V14.01,2013-01-26 19:20:00,
2013-01-26 11:25:00,53.9,44.7,30.01,WSW,258,4.0,4.0,71,0.00,,---,0.00,VWS V14.01,2013-01-26 19:25:00,
2013-01-26 11:30:00,54.3,45.1,30.00,West,277,3.0,5.0,71,0.00,,---,0.00,VWS V14.01,2013-01-26 19:30:00,
2013-01-26 11:35:00,55.0,45.4,30.00,WNW,297,0.0,5.0,70,0.00,,---,0.00,VWS V14.01,2013-01-26 19:35:00,
2013-01-26 11:40:00,55.5,45.5,30.00,NW,325,5.0,7.0,69,0.00,,---,0.00,VWS V14.01,2013-01-26 19:40:00,
2013-01-26 11:45:00,56.0,46.0,30.00,WNW,303,2.0,5.0,69,0.00,,---,0.00,VWS V14.01,2013-01-26 19:45:00,
2013-01-26 11:50:00,56.4,45.6,29.99,NNW,331,3.0,5.0,67,0.00,,---,0.00,VWS V14.01,2013-01-26 19:50:00,
2013-01-26 11:55:00,56.6,45.4,29.99,West,273,0.0,7.0,66,0.00,,---,0.00,VWS V14.01,2013-01-26 19:55:00,
2013-01-26 12:00:00,56.5,44.5,29.99,NW,312,6.0,9.0,64,0.00,,---,0.00,VWS V14.01,2013-01-26 20:00:00,
2013-01-26 12:05:00,56.6,44.6,29.99,WNW,282,1.0,6.0,64,0.00,,---,0.00,VWS V14.01,2013-01-26 20:05:00,
2013-01-26 12:10:00,56.5,43.2,29.99,WNW,286,0.0,6.0,61,0.00,,---,0.00,VWS V14.01,2013-01-26 20:10:00,
2013-01-26 12:15:00,56.5,42.4,29.99,WSW,255,2.0,11.0,59,0.00,,---,0.00,VWS V14.01,2013-01-26 20:15:00,
2013-01-26 12:20:00,56.5,41.0,29.98,ESE,117,0.0,11.0,56,0.00,,---,0.00,VWS V14.01,2013-01-26 20:20:00,
2013-01-26 12:25:00,56.4,40.0,29.98,WSW,238,2.0,9.0,54,0.00,,---,0.00,VWS V14.01,2013-01-26 20:25:00,
2013-01-26 12:30:00,56.3,39.4,29.98,West,279,2.0,9.0,53,0.00,,---,0.00,VWS V14.01,2013-01-26 20:30:00,
2013-01-26 12:35:00,56.3,40.4,29.98,SE,144,3.0,3.0,55,0.00,,---,0.00,VWS V14.01,2013-01-26 20:35:00,
2013-01-26 12:40:00,56.8,39.9,29.97,WNW,294,2.0,5.0,53,0.00,,---,0.00,VWS V14.01,2013-01-26 20:40:00,
2013-01-26 12:45:00,57.0,39.6,29.97,SE,142,0.0,3.0,52,0.00,,---,0.00,VWS V14.01,2013-01-26 20:45:00,
2013-01-26 12:50:00,57.2,38.2,29.97,NW,321,1.0,5.0,49,0.00,,---,0.00,VWS V14.01,2013-01-26 20:50:00,
2013-01-26 12:55:00,57.0,37.0,29.97,SSW,213,2.0,7.0,47,0.00,,---,0.00,VWS V14.01,2013-01-26 20:55:00,
2013-01-26 13:00:00,56.8,36.8,29.97,West,275,3.0,9.0,47,0.00,,---,0.00,VWS V14.01,2013-01-26 21:00:00,
2013-01-26 13:05:00,56.6,36.6,29.97,West,279,1.0,6.0,47,0.00,,---,0.00,VWS V14.01,2013-01-26 21:05:00,
2013-01-26 13:10:00,56.6,37.2,29.97,West,260,3.0,7.0,48,0.00,,---,0.00,VWS V14.01,2013-01-26 21:10:00,
2013-01-26 13:15:00,56.3,36.9,29.97,NNW,346,4.0,10.0,48,0.00,,---,0.00,VWS V14.01,2013-01-26 21:15:00,
2013-01-26 13:20:00,56.3,37.9,29.96,West,276,4.0,10.0,50,0.00,,---,0.00,VWS V14.01,2013-01-26 21:20:00,
2013-01-26 13:25:00,56.4,38.5,29.96,WNW,302,1.0,6.0,51,0.00,,---,0.00,VWS V14.01,2013-01-26 21:25:00,
2013-01-26 13:30:00,56.5,39.6,29.96,WSW,251,1.0,6.0,53,0.00,,---,0.00,VWS V14.01,2013-01-26 21:30:00,
2013-01-26 13:34:00,56.4,40.0,29.96,West,271,4.0,4.0,54,0.00,,---,0.00,VWS V14.01,2013-01-26 21:34:00,
2013-01-26 13:39:00,56.3,40.4,29.96,WNW,287,1.0,10.0,55,0.00,,---,0.00,VWS V14.01,2013-01-26 21:39:00,
2013-01-26 13:44:00,56.0,40.5,29.96,South,179,2.0,7.0,56,0.00,,---,0.00,VWS V14.01,2013-01-26 21:44:00,
2013-01-26 13:49:00,55.9,40.9,29.96,West,262,2.0,15.0,57,0.00,,---,0.00,VWS V14.01,2013-01-26 21:49:00,
2013-01-26 13:54:00,55.9,41.3,29.96,West,275,1.0,11.0,58,0.00,,---,0.00,VWS V14.01,2013-01-26 21:54:00,
2013-01-26 13:59:00,55.9,41.8,29.96,NW,321,2.0,11.0,59,0.00,,---,0.00,VWS V14.01,2013-01-26 21:59:00,
2013-01-26 14:04:00,55.8,41.3,29.96,WNW,284,3.0,10.0,58,0.00,,---,0.00,VWS V14.01,2013-01-26 22:04:00,
2013-01-26 14:09:00,55.8,42.1,29.97,SW,225,1.0,10.0,60,0.00,,---,0.00,VWS V14.01,2013-01-26 22:09:00,
2013-01-26 14:14:00,56.0,42.3,29.97,NNW,334,4.0,7.0,60,0.00,,---,0.00,VWS V14.01,2013-01-26 22:14:00,
2013-01-26 14:19:00,56.2,43.0,29.97,WSW,248,2.0,11.0,61,0.00,,---,0.00,VWS V14.01,2013-01-26 22:19:00,
2013-01-26 14:24:00,56.3,42.6,29.97,WSW,248,3.0,9.0,60,0.00,,---,0.00,VWS V14.01,2013-01-26 22:24:00,
2013-01-26 14:29:00,56.0,42.3,29.97,NNW,329,5.0,11.0,60,0.00,,---,0.00,VWS V14.01,2013-01-26 22:29:00,
2013-01-26 14:34:00,55.5,42.3,29.97,NNW,345,6.0,12.0,61,0.00,,---,0.00,VWS V14.01,2013-01-26 22:34:00,
2013-01-26 14:39:00,55.2,42.4,29.97,NW,304,2.0,12.0,62,0.00,,---,0.00,VWS V14.01,2013-01-26 22:39:00,
2013-01-26 14:44:00,54.9,42.6,29.97,WSW,249,4.0,7.0,63,0.00,,---,0.00,VWS V14.01,2013-01-26 22:44:00,
2013-01-26 14:49:00,54.7,42.0,29.98,WNW,292,9.0,9.0,62,0.00,,---,0.00,VWS V14.01,2013-01-26 22:49:00,
2013-01-26 14:54:00,54.6,42.7,29.97,WSW,249,0.0,8.0,64,0.00,,---,0.00,VWS V14.01,2013-01-26 22:54:00,
2013-01-26 14:59:00,54.6,42.7,29.98,West,259,5.0,8.0,64,0.00,,---,0.00,VWS V14.01,2013-01-26 22:59:00,
2013-01-26 15:04:00,54.8,42.5,29.98,West,267,3.0,5.0,63,0.00,,---,0.00,VWS V14.01,2013-01-26 23:04:00,
2013-01-26 15:09:00,55.0,42.7,29.97,West,263,0.0,6.0,63,0.00,,---,0.00,VWS V14.01,2013-01-26 23:09:00,
2013-01-26 15:14:00,55.2,42.4,29.98,West,278,0.0,4.0,62,0.00,,---,0.00,VWS V14.01,2013-01-26 23:14:00,
2013-01-26 15:19:00,54.9,42.1,29.98,NW,306,1.0,10.0,62,0.00,,---,0.00,VWS V14.01,2013-01-26 23:19:00,
2013-01-26 15:24:00,54.7,41.5,29.97,NNE,25,1.0,11.0,61,0.00,,---,0.00,VWS V14.01,2013-01-26 23:24:00,
2013-01-26 15:29:00,54.5,41.8,29.98,NW,321,2.0,11.0,62,0.00,,---,0.00,VWS V14.01,2013-01-26 23:29:00,
2013-01-26 15:34:00,54.4,40.8,29.97,North,350,7.0,14.0,60,0.00,,---,0.00,VWS V14.01,2013-01-26 23:34:00,
2013-01-26 15:39:00,54.1,41.0,29.97,West,273,5.0,14.0,61,0.00,,---,0.00,VWS V14.01,2013-01-26 23:39:00,
2013-01-26 15:44:00,53.9,41.2,29.97,NW,315,0.0,2.0,62,0.00,,---,0.00,VWS V14.01,2013-01-26 23:44:00,
2013-01-26 15:49:00,53.8,41.1,29.97,NNW,327,2.0,2.0,62,0.00,,---,0.00,VWS V14.01,2013-01-26 23:49:00,
2013-01-26 15:54:00,53.7,41.4,29.97,SW,217,2.0,10.0,63,0.00,,---,0.00,VWS V14.01,2013-01-26 23:54:00,
2013-01-26 15:59:00,53.5,41.6,29.97,West,260,1.0,10.0,64,0.00,,---,0.00,VWS V14.01,2013-01-26 23:59:00,
2013-01-26 16:04:00,53.4,41.9,29.97,WNW,283,0.0,2.0,65,0.00,,---,0.00,VWS V14.01,2013-01-27 00:04:00,
2013-01-26 16:09:00,53.2,41.3,29.97,ESE,121,0.0,4.0,64,0.00,,---,0.00,VWS V14.01,2013-01-27 00:09:00,
2013-01-26 16:14:00,52.9,40.2,29.97,WSW,250,5.0,13.0,62,0.00,,---,0.00,VWS V14.01,2013-01-27 00:14:00,
2013-01-26 16:19:00,52.5,40.3,29.97,East,100,5.0,13.0,63,0.00,,---,0.00,VWS V14.01,2013-01-27 00:19:00,
2013-01-26 16:24:00,52.3,40.5,29.97,WSW,255,0.0,2.0,64,0.00,,---,0.00,VWS V14.01,2013-01-27 00:24:00,
2013-01-26 16:29:00,52.1,40.3,29.97,WSW,242,0.0,2.0,64,0.00,,---,0.00,VWS V14.01,2013-01-27 00:29:00,
2013-01-26 16:34:00,52.0,40.6,29.97,North,355,0.0,2.0,65,0.00,,---,0.00,VWS V14.01,2013-01-27 00:34:00,
2013-01-26 16:39:00,51.7,40.7,29.97,NNE,28,0.0,3.0,66,0.00,,---,0.00,VWS V14.01,2013-01-27 00:39:00,
2013-01-26 16:44:00,51.5,40.9,29.98,WNW,284,0.0,5.0,67,0.00,,---,0.00,VWS V14.01,2013-01-27 00:44:00,
2013-01-26 16:49:00,51.4,41.2,29.98,WNW,295,0.0,5.0,68,0.00,,---,0.00,VWS V14.01,2013-01-27 00:49:00,
2013-01-26 16:54:00,51.2,40.6,29.98,West,263,0.0,7.0,67,0.00,,---,0.00,VWS V14.01,2013-01-27 00:54:00,
2013-01-26 16:59:00,51.1,40.5,29.98,WNW,298,0.0,7.0,67,0.00,,---,0.00,VWS V14.01,2013-01-27 00:59:00,
2013-01-26 17:04:00,50.9,41.1,29.98,SW,216,1.0,2.0,69,0.00,,---,0.00,VWS V14.01,2013-01-27 01:04:00,
2013-01-26 17:09:00,50.6,40.4,29.98,WSW,242,0.0,3.0,68,0.00,,---,0.00,VWS V14.01,2013-01-27 01:09:00,
2013-01-26 17:14:00,50.4,40.6,29.98,WNW,286,0.0,3.0,69,0.00,,---,0.00,VWS V14.01,2013-01-27 01:14:00,
2013-01-26 17:19:00,50.3,40.5,29.99,WSW,252,1.0,3.0,69,0.00,,---,0.00,VWS V14.01,2013-01-27 01:19:00,
2013-01-26 17:24:00,50.1,40.3,29.99,West,271,3.0,3.0,69,0.00,,---,0.00,VWS V14.01,2013-01-27 01:24:00,
2013-01-26 17:29:00,50.0,40.2,29.99,West,262,0.0,7.0,69,0.00,,---,0.00,VWS V14.01,2013-01-27 01:29:00,
2013-01-26 17:34:00,49.8,40.0,29.99,West,263,0.0,1.0,69,0.00,,---,0.00,VWS V14.01,2013-01-27 01:34:00,
2013-01-26 17:39:00,49.5,40.5,29.99,SSW,196,0.0,2.0,71,0.00,,---,0.00,VWS V14.01,2013-01-27 01:39:00,
2013-01-26 17:44:00,49.1,40.5,29.99,WSW,251,0.0,1.0,72,0.00,,---,0.00,VWS V14.01,2013-01-27 01:44:00,
2013-01-26 17:49:00,48.8,40.2,30.00,NNW,332,0.0,1.0,72,0.00,,---,0.00,VWS V14.01,2013-01-27 01:49:00,
2013-01-26 17:54:00,48.5,40.2,30.00,SSE,168,0.0,1.0,73,0.00,,---,0.00,VWS V14.01,2013-01-27 01:54:00,
2013-01-26 17:59:00,48.3,40.1,30.00,NW,314,1.0,5.0,73,0.00,,---,0.00,VWS V14.01,2013-01-27 01:59:00,
2013-01-26 18:04:00,48.6,40.3,30.00,NW,319,0.0,10.0,73,0.00,,---,0.00,VWS V14.01,2013-01-27 02:04:00,
2013-01-26 18:09:00,48.6,40.3,30.00,SSW,194,2.0,10.0,73,0.00,,---,0.00,VWS V14.01,2013-01-27 02:09:00,
2013-01-26 18:14:00,48.5,40.6,30.01,South,177,0.0,6.0,74,0.00,,---,0.00,VWS V14.01,2013-01-27 02:14:00,
2013-01-26 18:19:00,48.4,40.5,30.01,South,177,0.0,6.0,74,0.00,,---,0.00,VWS V14.01,2013-01-27 02:19:00,
2013-01-26 18:24:00,48.1,40.6,30.01,South,177,0.0,1.0,75,0.00,,---,0.00,VWS V14.01,2013-01-27 02:24:00,
2013-01-26 18:29:00,47.5,40.0,30.01,ESE,122,0.0,3.0,75,0.00,,---,0.00,VWS V14.01,2013-01-27 02:29:00,
2013-01-26 18:34:00,47.1,39.9,30.01,SE,145,0.0,3.0,76,0.00,,---,0.00,VWS V14.01,2013-01-27 02:34:00,
2013-01-26 18:39:00,46.9,39.4,30.01,SE,143,0.0,4.0,75,0.00,,---,0.00,VWS V14.01,2013-01-27 02:39:00,
2013-01-26 18:44:00,47.1,39.2,30.01,ESE,117,2.0,6.0,74,0.00,,---,0.00,VWS V14.01,2013-01-27 02:44:00,
2013-01-26 18:49:00,47.3,38.7,30.01,SW,227,4.0,6.0,72,0.00,,---,0.00,VWS V14.01,2013-01-27 02:49:00,
2013-01-26 18:54:00,47.5,38.6,30.01,NE,46,2.0,11.0,71,0.00,,---,0.00,VWS V14.01,2013-01-27 02:54:00,
2013-01-26 18:59:00,47.7,38.4,30.02,WNW,300,1.0,11.0,70,0.00,,---,0.00,VWS V14.01,2013-01-27 02:59:00,
2013-01-26 19:04:00,47.7,38.4,30.02,WNW,294,0.0,4.0,70,0.00,,---,0.00,VWS V14.01,2013-01-27 03:04:00,
2013-01-26 19:09:00,47.8,38.5,30.02,SSE,150,0.0,4.0,70,0.00,,---,0.00,VWS V14.01,2013-01-27 03:09:00,
2013-01-26 19:14:00,47.7,38.4,30.02,SSE,150,0.0,1.0,70,0.00,,---,0.00,VWS V14.01,2013-01-27 03:14:00,
2013-01-26 19:19:00,47.6,38.3,30.02,NE,42,0.0,2.0,70,0.00,,---,0.00,VWS V14.01,2013-01-27 03:19:00,
2013-01-26 19:24:00,47.6,38.7,30.02,South,172,0.0,3.0,71,0.00,,---,0.00,VWS V14.01,2013-01-27 03:24:00,
2013-01-26 19:29:00,47.6,39.4,30.02,ESE,116,0.0,3.0,73,0.00,,---,0.00,VWS V14.01,2013-01-27 03:29:00,
2013-01-26 19:34:00,47.3,39.8,30.02,ESE,115,0.0,2.0,75,0.00,,---,0.00,VWS V14.01,2013-01-27 03:34:00,
2013-01-26 19:39:00,46.8,39.3,30.02,SSE,149,0.0,3.0,75,0.00,,---,0.00,VWS V14.01,2013-01-27 03:39:00,
2013-01-26 19:44:00,46.5,39.4,30.02,NNW,332,0.0,0.0,76,0.00,,---,0.00,VWS V14.01,2013-01-27 03:44:00,
2013-01-26 19:49:00,46.2,39.1,30.02,NNE,26,0.0,3.0,76,0.00,,---,0.00,VWS V14.01,2013-01-27 03:49:00,
2013-01-26 19:54:00,45.9,39.1,30.03,NNE,22,2.0,4.0,77,0.00,,---,0.00,VWS V14.01,2013-01-27 03:54:00,
2013-01-26 19:59:00,45.7,39.2,30.03,ENE,67,0.0,4.0,78,0.00,,---,0.00,VWS V14.01,2013-01-27 03:59:00,
2013-01-26 20:04:00,45.5,39.0,30.03,NNE,30,0.0,3.0,78,0.00,,---,0.00,VWS V14.01,2013-01-27 04:04:00,
2013-01-26 20:09:00,45.8,39.3,30.03,ESE,118,1.0,6.0,78,0.00,,---,0.00,VWS V14.01,2013-01-27 04:09:00,
2013-01-26 20:14:00,46.0,39.2,30.03,SE,146,0.0,3.0,77,0.00,,---,0.00,VWS V14.01,2013-01-27 04:14:00,
2013-01-26 20:19:00,46.0,39.2,30.03,NNW,337,4.0,4.0,77,0.00,,---,0.00,VWS V14.01,2013-01-27 04:19:00,
2013-01-26 20:24:00,46.0,39.2,30.03,North,355,0.0,0.0,77,0.00,,---,0.00,VWS V14.01,2013-01-27 04:24:00,
2013-01-26 20:29:00,45.9,39.1,30.03,South,172,0.0,2.0,77,0.00,,---,0.00,VWS V14.01,2013-01-27 04:29:00,
2013-01-26 20:34:00,46.0,39.5,30.03,West,278,0.0,4.0,78,0.00,,---,0.00,VWS V14.01,2013-01-27 04:34:00,
2013-01-26 20:39:00,46.1,39.6,30.03,SW,221,0.0,6.0,78,0.00,,---,0.00,VWS V14.01,2013-01-27 04:39:00,
2013-01-26 20:44:00,46.1,39.6,30.03,WSW,257,2.0,5.0,78,0.00,,---,0.00,VWS V14.01,2013-01-27 04:44:00,
2013-01-26 20:49:00,46.3,39.8,30.03,West,273,0.0,7.0,78,0.00,,---,0.00,VWS V14.01,2013-01-27 04:49:00,
2013-01-26 20:54:00,46.4,39.9,30.03,North,349,0.0,4.0,78,0.00,,---,0.00,VWS V14.01,2013-01-27 04:54:00,
2013-01-26 20:59:00,46.3,39.8,30.03,SSW,211,1.0,6.0,78,0.00,,---,0.00,VWS V14.01,2013-01-27 04:59:00,
2013-01-26 21:00:00,46.3,39.8,30.04,NW,319,0.0,6.0,78,0.00,,---,0.00,VWS V14.01,2013-01-27 05:00:00,
2013-01-26 21:01:00,46.3,39.8,30.03,NW,312,0.0,6.0,78,0.00,,---,0.00,VWS V14.01,2013-01-27 05:01:00,
2013-01-26 21:03:00,46.3,39.8,30.03,West,263,0.0,5.0,78,0.00,,---,0.00,VWS V14.01,2013-01-27 05:03:00,
2013-01-26 21:08:00,46.3,39.8,30.04,ENE,61,0.0,5.0,78,0.00,,---,0.00,VWS V14.01,2013-01-27 05:08:00,
2013-01-26 21:13:00,46.2,39.7,30.03,West,261,1.0,4.0,78,0.00,,---,0.00,VWS V14.01,2013-01-27 05:13:00,
2013-01-26 21:18:00,46.2,39.7,30.04,North,360,0.0,5.0,78,0.00,,---,0.00,VWS V14.01,2013-01-27 05:18:00,
2013-01-26 21:23:00,46.1,39.3,30.03,WNW,301,5.0,10.0,77,0.00,,---,0.00,VWS V14.01,2013-01-27 05:23:00,
2013-01-26 21:28:00,46.2,39.4,30.04,SSW,194,0.0,10.0,77,0.00,,---,0.00,VWS V14.01,2013-01-27 05:28:00,
2013-01-26 21:33:00,46.3,39.2,30.04,West,270,1.0,6.0,76,0.00,,---,0.00,VWS V14.01,2013-01-27 05:33:00,
2013-01-26 21:38:00,46.6,38.8,30.05,SSW,213,0.0,6.0,74,0.00,,---,0.00,VWS V14.01,2013-01-27 05:38:00,
2013-01-26 21:43:00,46.7,38.9,30.05,West,273,0.0,4.0,74,0.00,,---,0.00,VWS V14.01,2013-01-27 05:43:00,
2013-01-26 21:48:00,46.5,38.7,30.04,WSW,246,7.0,7.0,74,0.00,,---,0.00,VWS V14.01,2013-01-27 05:48:00,
2013-01-26 21:53:00,46.6,38.4,30.04,WSW,257,4.0,4.0,73,0.00,,---,0.00,VWS V14.01,2013-01-27 05:53:00,
2013-01-26 21:58:00,46.6,38.4,30.04,WSW,254,4.0,6.0,73,0.00,,---,0.00,VWS V14.01,2013-01-27 05:58:00,
2013-01-26 22:03:00,46.5,38.3,30.05,NW,305,4.0,4.0,73,0.00,,---,0.00,VWS V14.01,2013-01-27 06:03:00,
2013-01-26 22:08:00,46.4,38.2,30.05,NNE,15,0.0,9.0,73,0.00,,---,0.00,VWS V14.01,2013-01-27 06:08:00,
2013-01-26 22:13:00,46.4,39.3,30.05,SW,218,0.0,1.0,76,0.00,,---,0.00,VWS V14.01,2013-01-27 06:13:00,
2013-01-26 22:18:00,46.3,38.1,30.05,WNW,285,0.0,5.0,73,0.00,,---,0.00,VWS V14.01,2013-01-27 06:18:00,
2013-01-26 22:23:00,46.1,37.9,30.05,WNW,286,0.0,0.0,73,0.00,,---,0.00,VWS V14.01,2013-01-27 06:23:00,
2013-01-26 22:28:00,46.1,38.3,30.05,South,175,0.0,6.0,74,0.00,,---,0.00,VWS V14.01,2013-01-27 06:28:00,
2013-01-26 22:33:00,46.1,38.3,30.05,NW,313,0.0,1.0,74,0.00,,---,0.00,VWS V14.01,2013-01-27 06:33:00,
2013-01-26 22:38:00,46.0,38.2,30.05,WSW,242,1.0,6.0,74,0.00,,---,0.00,VWS V14.01,2013-01-27 06:38:00,
2013-01-26 22:43:00,45.9,38.4,30.05,NNW,342,0.0,0.0,75,0.00,,---,0.00,VWS V14.01,2013-01-27 06:43:00,
2013-01-26 22:48:00,45.8,38.3,30.06,NNW,342,0.0,0.0,75,0.00,,---,0.00,VWS V14.01,2013-01-27 06:48:00,
2013-01-26 22:53:00,45.5,38.0,30.06,NE,41,0.0,0.0,75,0.00,,---,0.00,VWS V14.01,2013-01-27 06:53:00,
2013-01-26 22:58:00,45.1,38.0,30.06,SSW,205,0.0,3.0,76,0.00,,---,0.00,VWS V14.01,2013-01-27 06:58:00,
2013-01-26 23:03:00,45.0,38.2,30.05,NW,314,2.0,5.0,77,0.00,,---,0.00,VWS V14.01,2013-01-27 07:03:00,
2013-01-26 23:08:00,45.0,38.2,30.06,NW,311,1.0,5.0,77,0.00,,---,0.00,VWS V14.01,2013-01-27 07:08:00,
2013-01-26 23:13:00,44.7,37.9,30.06,SSE,153,3.0,3.0,77,0.00,,---,0.00,VWS V14.01,2013-01-27 07:13:00,
2013-01-26 23:18:00,44.6,38.2,30.06,SW,234,0.0,3.0,78,0.00,,---,0.00,VWS V14.01,2013-01-27 07:18:00,
2013-01-26 23:23:00,44.8,38.4,30.06,NW,315,0.0,0.0,78,0.00,,---,0.00,VWS V14.01,2013-01-27 07:23:00,
2013-01-26 23:28:00,44.9,38.5,30.06,NNW,338,1.0,1.0,78,0.00,,---,0.00,VWS V14.01,2013-01-27 07:28:00,
2013-01-26 23:33:00,44.6,37.8,30.06,NE,47,0.0,0.0,77,0.00,,---,0.00,VWS V14.01,2013-01-27 07:33:00,
2013-01-26 23:38:00,44.1,37.7,30.06,NE,53,0.0,1.0,78,0.00,,---,0.00,VWS V14.01,2013-01-27 07:38:00,
2013-01-26 23:43:00,43.7,37.6,30.06,NE,53,0.0,0.0,79,0.00,,---,0.00,VWS V14.01,2013-01-27 07:43:00,
2013-01-26 23:48:00,43.3,37.6,30.06,NE,53,0.0,0.0,80,0.00,,---,0.00,VWS V14.01,2013-01-27 07:48:00,
2013-01-26 23:53:00,42.9,37.5,30.06,NE,53,0.0,0.0,81,0.00,,---,0.00,VWS V14.01,2013-01-27 07:53:00,
2013-01-26 23:58:00,42.6,37.5,30.06,ESE,103,0.0,0.0,82,0.00,,---,0.00,VWS V14.01,2013-01-27 07:58:00,